This is the latest recevied weather packets stored in our database for station/object AE0NK. If no packets are shown the sender has not sent any weather packets the latest 10 day(s).
| Time | Temp. | Humidity | Pressure | Rain* | Wind** | Luminosity | Snow |
|---|---|---|---|---|---|---|---|
| 1777313899 | 21.11° C | 75% | 1000.2 hPa | 0 mm | - | 141 W/m² | - |
| 1777313618 | 21.11° C | 74% | 1000.4 hPa | 0 mm | - | 350 W/m² | - |
| 1777313308 | 21.11° C | 73% | 1000.3 hPa | 0 mm | - | 443 W/m² | - |
| 1777313004 | 21.11° C | 75% | 1000.2 hPa | 0 mm | - | 830 W/m² | - |
| 1777312699 | 20.56° C | 74% | 1000.1 hPa | 0 mm | - | 673 W/m² | - |
| 1777312397 | 20.56° C | 75% | 1000.1 hPa | 0 mm | - | 673 W/m² | - |
| 1777312096 | 20.56° C | 74% | 999.9 hPa | 0 mm | - | 605 W/m² | - |
| 1777311792 | 20° C | 76% | 999.9 hPa | 0 mm | - | 666 W/m² | - |
| 1777311491 | 20° C | 77% | 999.8 hPa | 0 mm | - | 619 W/m² | - |
| 1777311209 | 20° C | 78% | 999.6 hPa | 0 mm | - | 812 W/m² | - |
| 1777310908 | 20° C | 79% | 999.6 hPa | 0 mm | - | 796 W/m² | - |
| 1777310606 | 19.44° C | 80% | 999.6 hPa | 0 mm | - | 807 W/m² | - |
| 1777310304 | 19.44° C | 82% | 999.7 hPa | 0 mm | - | 737 W/m² | - |
| 1777310001 | 18.89° C | 82% | 999.5 hPa | 0 mm | - | 724 W/m² | - |
| 1777309700 | 18.33° C | 83% | 999.3 hPa | 0 mm | - | 594 W/m² | - |
| 1777309397 | 18.33° C | 85% | 999.3 hPa | 0 mm | - | 457 W/m² | - |
| 1777309094 | 18.33° C | 88% | 999 hPa | 0 mm | - | 490 W/m² | - |
| 1777308791 | 17.78° C | 87% | 998.8 hPa | 0 mm | - | 469 W/m² | - |
| 1777308508 | 17.22° C | 88% | 998.7 hPa | 0 mm | - | 566 W/m² | - |
| 1777308208 | 17.22° C | 88% | 998.6 hPa | 0 mm | - | 478 W/m² | - |
| 1777307905 | 17.22° C | 89% | 998.5 hPa | 0 mm | - | 332 W/m² | - |
| 1777307601 | 17.22° C | 90% | 998.5 hPa | 0 mm | - | 427 W/m² | - |
| 1777307301 | 16.67° C | 91% | 998.5 hPa | 0 mm | - | 313 W/m² | - |
| 1777307000 | 16.67° C | 91% | 998.2 hPa | 0 mm | - | 304 W/m² | - |
| 1777306691 | 16.67° C | 91% | 998.3 hPa | 0 mm | - | 265 W/m² | - |
* Rain latest hour (hover to see other rain measurements)
** Current wind speed in m/s (hover to see current wind gust speed)